Location: Indian Lodge
(32.1088°N, 97.4892°W)
Time: 06:58:20
(UTC+00:00)

Cosmos 1626 Rocket - Pass Details

Date: 11 December 2025
Orbit: 596 x 624 km, 82.5° (Epoch: 20 January)

Event Time Altitude Azimuth Distance (km) Brightness Sun altitude
Rises 12:27:05 0° 197° (SSW) 2,890 7.0 -11.3°
Reaches altitude 10° 12:29:22 10° 202° (SSW) 1,987 6.2 -10.8°
Maximum altitude 12:33:38 50° 278° (W) 791 3.7 -10.0°
Drops below altitude 10° 12:37:56 10° 354° (N) 1,989 5.9 -9.1°
Sets 12:40:13 0° 0° (N) 2,895 6.8 -8.7°
